Regional Weather Roundup
Issued by NWS

Home | Current Version | Previous Version | Text Only | Print | Product List | Glossary On
Versions: 1 2 3 4 5 6 7 8 9 10 11 12 13 14 15 16 17 18 19 20 21 22 23 24 25 26 27 28 29 30 31 32 33 34 35 36 37 38 39 40 41 42 43 44 45 46 47 48 49 50
000
ASUS44 KOUN 041610
RWROK

WEATHER ROUNDUP FOR OKLAHOMA
NATIONAL WEATHER SERVICE NORMAN OK
1100 AM CDT FRI SEP 04 2015

NOTE: "FAIR" INDICATES FEW OR NO CLOUDS BELOW 12,000 FEET WITH NO
      SIGNIFICANT WEATHER AND/OR OBSTRUCTIONS TO VISIBILITY.

OKZ001>007-009>012-014-015-017-041700-
NORTHWEST OKLAHOMA AND THE PANHANDLE

CITY           SKY/WX    TMP DP  RH WIND       PRES   REMARKS
GAGE           SUNNY     86  62  44 S22       29.96R
GUYMON         MOSUNNY   82  54  37 SW16      29.94S
ENID/WOODRING  MOSUNNY   86  70  58 S18       29.96R HX  90
$$

OKZ016-021>023-033>039-044-045-041700-
SOUTHWEST OKLAHOMA

CITY           SKY/WX    TMP DP  RH WIND       PRES   REMARKS
LAWTON/REGL    SUNNY     89  67  47 S12       29.98R HX  92
LAWTON/FT SILL SUNNY     88  69  53 S13       29.97R HX  92
FREDERICK      SUNNY     89  68  49 S17       29.95R HX  93
CLINTON        SUNNY     86  64  47 S23G29    30.00R
HOBART         SUNNY     88  65  46 S20       29.98S HX  90
ALTUS AFB      SUNNY     88  65  46 S15       29.96S
$$

OKZ018>020-024>031-041700-
CENTRAL OKLAHOMA

CITY           SKY/WX    TMP DP  RH WIND       PRES   REMARKS
OKLAHOMA CITY  MOSUNNY   86  69  56 S16G22    29.99R HX  90
OKC/WILEY POST SUNNY     87  68  52 S14G21    29.99R HX  90
OKC/TINKER AFB SUNNY     86  69  56 S12       29.99R
STILLWATER     SUNNY     86  69  56 S10       29.99R HX  90
GUTHRIE        SUNNY     88  68  51 S10       29.98R HX  91
$$

OKZ008-013-054>072-041700-
NORTHEAST OKLAHOMA

CITY           SKY/WX    TMP DP  RH WIND       PRES   REMARKS
TULSA          MOSUNNY   86  71  60 SE9       29.99R HX  91
TULSA/JONES    SUNNY     86  70  58 S9        30.00R HX  90
PONCA CITY     SUNNY     85  69  58 S8G17     29.98R
BARTLESVILLE   SUNNY     85  70  60 S8G17     30.01R
MUSKOGEE       SUNNY     85  72  65 S10       30.02R HX  91
$$

OKZ032-040>043-046>053-073>077-041700-
SOUTH CENTRAL/SOUTHEAST OKLAHOMA

CITY           SKY/WX    TMP DP  RH WIND       PRES   REMARKS
ARDMORE/DWNTWN SUNNY     86  64  48 SW5       29.98S
MCALESTER      MOSUNNY   86  71  60 S7        30.01R HX  91
$$




USA.gov is the U.S. government's official web portal to all federal, state and local government web resources and services.